Tracking 19792 objects as of 16-Jul-2019
HD Live streaming from Space Station
objects crossing your sky now

EUTE 12 WEST A (AB 1)

Track EUTE 12 WEST A (AB 1) now!
EUTE 12 WEST A (AB 1) is classified as:


NORAD ID: 27508
Int'l Code: 2002-040A
Perigee: 36,333.6 km
Apogee: 36,382.1 km
Inclination: 0.9 °
Period: 1,465.0 minutes
Semi major axis: 42728 km
RCS: 16.1652 m2 (large)
Launch date: August 28, 2002
Source: European Telecommunications Satellite Organization (EUTE)
Launch site: FRENCH GUIANA (FRGUI)

Twenty channels, telecommunications services between Europe and the Americas.
aabbcc
Your satellite tracking list
Your tracking list is empty




NASA's NSSDC Master Catalog

Two Line Element Set (TLE):
1 27508U 02040A   19196.17935123 -.00000037  00000-0  00000+0 0  9995
2 27508   0.9321  91.0675 0005673 303.2850   7.1263  0.98292582 61842
Source of the keplerian elements: AFSPC